Overview Statistics Trail Chart Weather Telemetry Raw packets
 

This is the latest recevied weather packets stored in our database for station/object KJ6HT. If no packets are shown the sender has not sent any weather packets the latest 10 day(s).

<< 5 6 7 8 9 10 11 >>
Time Temp. Humidity Pressure Rain* Wind** Luminosity Snow
1788535868 20° C 82% 1012.1 hPa 0 mm - - -
1788534952 19.44° C 83% 1012.2 hPa 0 mm - - -
1788534052 19.44° C 81% 1012.1 hPa 0 mm - - -
1788533150 19.44° C 82% 1012 hPa 0 mm - - -
1788532246 17.78° C 87% 1012 hPa 0 mm - - -
1788531344 17.22° C 90% 1012 hPa 0 mm - - -
1788530443 16.11° C 92% 1011.8 hPa 0 mm - - -
1788529541 15.56° C 92% 1011.8 hPa 0 mm - - -
1788528645 15.56° C 91% 1011.6 hPa 0 mm - - -
1788527797 15.56° C 91% 1011.6 hPa 0 mm - - -
1788526836 16.11° C 91% 1011.6 hPa 0 mm - - -
1788525934 16.11° C 90% 1011.5 hPa 0 mm - - -
1788525031 16.11° C 89% 1011.4 hPa 0 mm - - -
1788524129 16.67° C 89% 1011.3 hPa 0 mm - - -
1788523227 16.67° C 88% 1011.2 hPa 0 mm - - -
1788522327 17.22° C 88% 1011.2 hPa 0 mm - - -
1788521438 17.22° C 88% 1011.2 hPa 0 mm - - -
1788520534 17.22° C 88% 1011 hPa 0 mm - - -
1788519624 17.22° C 88% 1011 hPa 0 mm - - -
1788518758 17.22° C 88% 1011.1 hPa 0 mm - - -
1788517835 17.22° C 88% 1011.2 hPa 0 mm - - -
1788516923 17.22° C 88% 1011.1 hPa 0 mm - - -
1788516022 17.22° C 90% 1011.1 hPa 0 mm - - -
1788515130 16.67° C 89% 1011 hPa 0 mm - - -
1788514221 16.67° C 88% 1011 hPa 0 mm - - -

* Rain latest hour (hover to see other rain measurements)
** Current wind speed in m/s (hover to see current wind gust speed)